Weather History for Macon, GA

Change the Weather History Date:

Saturday, October 12, 2013

  Actual Average Record
Temperature  
Mean Temperature 69 °F 66 °F  
Max Temperature 86 °F 78 °F 90 °F (1953)
Min Temperature 51 °F 54 °F 37 °F (2000)
Degree Days  
Heating Degree Days 0 2  
Month to date heating degree days 0 19  
Since 1 July heating degree days 0 25  
Cooling Degree Days 4 3  
Month to date cooling degree days 55 55  
Year to date cooling degree days 1820 2105  
Growing Degree Days 18 (Base 50)    
Moisture  
Dew Point 55 °F    
Average Humidity 66    
Maximum Humidity 100    
Minimum Humidity 32    
Precipitation  
Precipitation 0.00 in 0.09 in 1.58 in (1994)
Month to date precipitation 0.43 1.17  
Year to date precipitation 60.33 36.70  
Sea Level Pressure  
Sea Level Pressure 30.02 in    
Wind  
Wind Speed 3 mph (WNW)    
Max Wind Speed 18 mph    
Max Gust Speed 29 mph    
Visibility 9 miles    
Events      
T = Trace of Precipitation, MM = Missing Value Source: NWS Daily Summary

Daily Weather History Graph

Daily Weather History Graph

Search for Another Location

Airport:

Trip Planner

Search our weather history database for the weather conditions in past years. The results will help you decide how hot, cold, wet, or windy it might be!

Date:

Astronomy

Oct. 12, 2013 Rise Set
Actual Time 7:36 AM EDT 7:04 PM EDT
Civil Twilight 7:11 AM EDT 7:29 PM EDT
Nautical Twilight 6:43 AM EDT 7:58 PM EDT
Astronomical Twilight 6:14 AM EDT 8:26 PM EDT
Moon 2:55 PM EDT (10/12) 12:59 AM EDT (10/12)
Length of Visible Light 12h 17m
Length of Day
11h 28m
First Quarter, 58% of the Moon is Illuminated
Oct 12
First Quarter
Oct 18
Full
Oct 26
Last Quarter
Nov 3
New
Nov 10
First Quarter

Hourly Weather History & Observations

Time (EDT) Temp. Heat Index Dew Point Humidity Pressure Visibility Wind Dir Wind Speed Gust Speed Precip Events Conditions
12:53 AM 59.0 °F - 55.9 °F 90% 29.98 in 10.0 mi WNW 4.6 mph - N/A   Clear
1:53 AM 55.9 °F - 55.9 °F 100% 29.98 in 9.0 mi West 4.6 mph - N/A   Clear
2:53 AM 55.9 °F - 55.0 °F 97% 29.98 in 10.0 mi Calm Calm - N/A   Clear
3:53 AM 55.0 °F - 54.0 °F 96% 29.98 in 10.0 mi Calm Calm - 0.01 in   Clear
4:53 AM 54.0 °F - 53.1 °F 97% 29.99 in 7.0 mi West 3.5 mph - N/A   Clear
5:53 AM 53.1 °F - 52.0 °F 96% 30.00 in 7.0 mi West 3.5 mph - N/A   Clear
6:53 AM 53.1 °F - 52.0 °F 96% 30.01 in 7.0 mi Calm Calm - 0.01 in   Clear
7:53 AM 51.1 °F - 51.1 °F 100% 30.03 in 7.0 mi Calm Calm - N/A   Clear
8:53 AM 57.9 °F - 55.9 °F 93% 30.05 in 10.0 mi West 3.5 mph - N/A   Clear
9:53 AM 64.0 °F - 59.0 °F 84% 30.06 in 10.0 mi West 3.5 mph - N/A   Clear
10:53 AM 72.0 °F - 57.9 °F 61% 30.06 in 10.0 mi Variable 4.6 mph - N/A   Clear
11:53 AM 75.9 °F - 55.9 °F 50% 30.05 in 10.0 mi Calm Calm - N/A   Clear
12:53 PM 80.1 °F 80.2 °F 55.9 °F 43% 30.04 in 10.0 mi Variable 3.5 mph - N/A   Clear
1:53 PM 82.0 °F 81.4 °F 55.0 °F 39% 30.02 in 10.0 mi NNE 8.1 mph - N/A   Clear
2:53 PM 84.0 °F 82.9 °F 55.0 °F 37% 30.00 in 10.0 mi Variable 4.6 mph - N/A   Clear
3:53 PM 84.0 °F - 52.0 °F 33% 30.00 in 10.0 mi Calm Calm - N/A   Clear
4:53 PM 82.9 °F - 52.0 °F 34% 30.00 in 10.0 mi Variable 3.5 mph - N/A   Clear
5:53 PM 82.9 °F - 51.1 °F 33% 30.01 in 10.0 mi NW 9.2 mph - N/A   Clear
6:53 PM 77.0 °F - 53.1 °F 43% 30.02 in 10.0 mi NW 5.8 mph - N/A   Clear
7:53 PM 66.9 °F - 59.0 °F 76% 30.03 in 10.0 mi West 3.5 mph - N/A   Clear
8:53 PM 64.0 °F - 57.0 °F 78% 30.04 in 10.0 mi West 3.5 mph - N/A   Clear
9:53 PM 62.1 °F - 57.9 °F 86% 30.05 in 10.0 mi Calm Calm - N/A   Clear
10:53 PM 60.1 °F - 57.9 °F 93% 30.07 in 10.0 mi Calm Calm - N/A   Clear
11:53 PM 60.1 °F - 57.0 °F 90% 30.08 in 10.0 mi West 3.5 mph - N/A   Clear